Temp
18 18 18 18 17 15 17 17 16 16 16 14 14 14 15 13 15 17 11 11 10 10 8 8 8 7 6 6 6 6 6 6 6 6 6 7 7 7 8 8 9 9 12 14 14 14 15 14 14
18 18 18 18 16 17 18 16 17 16 14 14 14 14 14 14 12 12 10 11 10 9 8 7 7 7 6 5 5 6 6 6 6 7 7 6 7 7 8 10 10 11 14 14 14 14 14 14 14
18 18 18 13 12 17 17 16 16 12 13 14 13 13 13 12 12 11 11 10 10 9 8 7 6 6 6 5 5 6 6 6 5 6 7 7 7 6 9 12 13 13 13 13 13 14 14 14 14
18 18 16 15 16 15 16 15 13 12 13 14 14 13 12 12 11 11 11 10 10 9 8 7 7 6 5 5 5 6 6 6 6 7 8 8 8 9 9 12 12 12 13 13 13 13 14 14 14
17 17 13 14 15 15 14 13 13 13 13 14 14 13 12 12 12 11 10 10 9 8 8 6 6 5 5 5 5 6 6 7 8 9 9 10 10 10 11 11 11 11 12 12 13 12 13 14 14
16 15 14 15 14 14 14 13 13 13 13 13 13 12 12 11 11 11 10 10 9 9 8 6 6 5 5 6 6 7 8 8 9 9 10 10 10 10 11 10 10 11 11 11 12 12 12 13 13
14 12 14 14 14 15 14 13 13 14 13 14 14 13 12 11 11 10 9 9 8 8 8 8 8 7 6 7 8 8 8 9 9 9 10 10 10 11 11 11 10 10 11 11 11 11 12 12 13
16 11 13 13 14 16 13 13 14 14 14 14 13 13 12 12 11 9 9 8 8 8 8 8 8 8 8 8 7 8 8 9 9 9 10 10 10 10 10 11 11 11 11 11 11 11 11 12 12
15 12 13 15 13 15 13 13 14 14 14 13 13 13 13 12 11 9 9 8 8 8 8 8 8 8 8 8 8 8 8 9 9 9 9 9 9 10 10 10 11 11 11 11 11 11 12 11 12
12 12 14 13 12 13 12 12 13 13 13 13 13 13 13 12 11 10 9 9 9 8 8 8 8 8 8 8 8 8 8 8 9 9 9 9 9 10 10 10 10 10 11 11 11 11 11 11 11
12 13 12 12 12 12 12 12 12 12 13 13 13 13 12 12 11 10 10 10 10 8 8 8 7 7 8 8 8 8 8 8 8 9 9 9 9 9 9 9 10 10 10 10 11 11 11 12 11
14 12 12 12 12 12 11 11 12 12 13 12 12 12 12 12 12 11 10 9 9 9 8 8 8 7 7 7 7 7 8 8 8 8 9 8 8 9 9 9 9 9 10 10 11 11 11 11 12
13 12 12 12 11 11 11 11 11 11 12 12 13 12 12 12 11 10 10 9 9 8 8 8 8 7 7 7 7 7 7 8 8 8 8 8 8 9 9 9 9 9 9 10 10 10 11 11 11
12 12 11 11 11 10 10 10 9 11 11 12 12 12 11 11 11 10 9 9 9 8 8 8 8 7 7 7 7 7 7 7 8 8 8 8 8 8 8 9 9 9 9 9 10 10 10 11 11
12 13 11 9 9 10 9 11 10 11 11 11 10 11 11 11 10 10 10 9 9 8 8 8 7 7 7 7 7 7 7 7 7 7 7 8 8 8 8 8 9 9 9 8 9 9 10 10 10
11 11 13 9 8 10 11 13 11 11 11 10 10 10 10 10 10 10 9 9 9 8 8 7 7 7 7 7 7 7 7 7 7 7 7 7 7 7 8 8 8 8 8 9 9 9 9 9 9
9 13 12 12 6 7 10 12 10 10 10 9 9 9 10 10 10 10 9 9 9 8 8 8 7 7 6 6 6 6 6 6 7 7 7 7 7 7 7 8 8 8 8 9 9 9 9 9 9
13 13 11 11 8 6 8 8 8 9 8 8 7 8 9 10 10 10 10 9 8 8 7 7 7 6 6 6 6 6 6 6 6 6 6 7 7 7 7 7 7 8 8 8 8 8 9 9 8
10 11 11 9 6 7 8 5 7 7 8 7 7 7 8 9 10 10 9 9 8 7 7 7 7 6 6 6 6 6 6 6 6 6 6 6 6 6 6 6 7 7 7 8 7 8 8 8 8
10 10 9 8 6 7 5 6 6 7 7 7 6 7 8 9 10 10 9 9 8 8 7 7 7 6 6 6 6 6 6 6 6 5 5 5 5 5 6 6 6 6 6 6 7 7 7 7 7
9 9 9 8 6 4 4 9 9 8 8 7 7 7 8 9 9 9 9 9 8 8 7 7 7 6 6 6 6 6 6 5 5 5 5 5 5 5 5 5 5 6 6 6 6 6 5 5 5
11 7 7 6 6 8 4 10 8 8 8 6 6 6 7 8 9 9 9 9 8 8 7 6 6 6 6 6 6 6 6 6 6 5 5 5 5 5 4 5 5 5 5 5 5 5 5 4 4
8 5 5 4 2 2 6 5 9 7 8 7 5 6 6 7 8 8 9 8 8 7 7 6 6 5 5 5 5 5 6 5 5 5 5 4 4 4 4 4 4 4 4 4 3 3 3 3 3
3 5 3 1 2 4 1 5 10 7 7 6 4 5 6 7 8 8 7 7 7 6 6 6 5 5 5 5 5 5 5 5 5 4 4 3 3 3 3 3 3 3 3 3 3 3 3 2 2
4 5 6 6 4 8 1 4 8 7 5 5 4 4 5 6 7 7 7 7 6 6 6 5 5 5 4 4 4 4 4 4 4 4 3 3 3 3 3 2 2 2 2 2 2 2 2 2 1
5 3 4 7 8 8 3 5 8 4 2 3 3 3 4 5 6 6 6 6 6 6 5 5 4 4 4 3 4 4 3 3 3 3 2 2 2 2 1 1 1 1 1 1 1 1 1 1 1
5 5 3 0 0 1 6 5 5 1 1 1 1 2 3 3 4 5 5 5 5 5 5 4 4 3 3 3 3 2 2 2 2 2 1 1 1 1 0 0 1 1 0 0 -0 -0 -0 -0 -0
2 1 4 -0 5 5 5 3 8 2 2 0 0 0 1 2 3 4 4 4 4 3 3 3 3 3 2 2 2 1 1 1 1 1 0 0 -0 -0 -0 -0 -0 -0 -0 -0 -0 -1 -1 -1 -1
0 -1 -1 1 2 4 3 6 1 1 1 1 -0 0 1 1 2 3 3 3 3 3 2 2 1 1 1 0 0 -0 0 -0 -0 -0 -0 -0 -1 -1 -1 -1 -1 -1 -1 -1 -1 -1 -1 -1 -1
-4 -1 -1 4 2 -0 2 3 0 -4 -4 0 -1 0 1 2 1 1 2 2 1 1 1 1 -0 -0 -1 -1 -2 -2 -2 -2 -1 -1 -1 -1 -1 -1 -1 -1 -1 -1 -1 -1 -1 -1 -2 -2 -2
Height
1502 1503 1504 1505 1514 1516 1521 1517 1514 1514 1516 1516 1516 1517 1518 1518 1520 1525 1524 1526 1529 1533 1535 1538 1540 1540 1540 1540 1540 1540 1540 1541 1541 1542 1541 1541 1541 1539 1537 1536 1534 1533 1532 1531 1530 1529 1529 1529 1528
1502 1503 1505 1505 1517 1522 1518 1513 1513 1512 1514 1515 1516 1517 1518 1519 1521 1521 1524 1527 1530 1533 1536 1538 1540 1541 1541 1541 1541 1540 1541 1542 1542 1542 1541 1541 1541 1540 1537 1536 1535 1534 1533 1532 1531 1530 1530 1529 1529
1503 1504 1505 1511 1524 1520 1517 1512 1511 1514 1514 1515 1516 1517 1518 1520 1521 1523 1524 1527 1530 1533 1536 1539 1540 1540 1541 1541 1541 1541 1542 1542 1542 1542 1542 1541 1541 1540 1537 1537 1536 1535 1535 1533 1532 1531 1531 1531 1530
1503 1505 1508 1514 1518 1514 1512 1511 1512 1514 1515 1515 1515 1518 1519 1520 1521 1523 1525 1528 1531 1534 1537 1539 1540 1541 1541 1541 1542 1542 1542 1543 1543 1542 1542 1541 1540 1539 1538 1537 1536 1536 1535 1535 1533 1532 1531 1531 1531
1504 1504 1514 1520 1518 1513 1511 1510 1512 1513 1514 1515 1515 1517 1518 1519 1521 1523 1526 1528 1531 1534 1536 1539 1540 1541 1541 1542 1543 1543 1543 1543 1543 1543 1543 1542 1541 1540 1539 1538 1537 1536 1535 1535 1534 1532 1531 1531 1531
1504 1506 1517 1519 1518 1512 1511 1510 1511 1512 1513 1514 1515 1516 1518 1518 1520 1522 1526 1529 1532 1534 1536 1538 1539 1540 1541 1542 1543 1543 1544 1544 1544 1544 1543 1543 1542 1541 1540 1538 1537 1536 1535 1534 1534 1533 1532 1531 1531
1503 1510 1516 1517 1515 1512 1511 1511 1512 1512 1513 1513 1514 1516 1518 1518 1519 1522 1526 1529 1531 1533 1535 1537 1538 1540 1541 1542 1543 1544 1545 1545 1545 1545 1544 1544 1543 1542 1541 1540 1538 1536 1536 1534 1534 1533 1533 1531 1531
1503 1508 1517 1516 1515 1512 1511 1511 1511 1511 1512 1512 1513 1514 1516 1517 1519 1522 1525 1528 1530 1533 1535 1537 1538 1540 1542 1543 1544 1545 1546 1546 1546 1546 1545 1545 1544 1542 1541 1540 1538 1537 1536 1535 1534 1533 1533 1532 1531
1503 1513 1518 1512 1515 1510 1511 1511 1511 1511 1512 1512 1512 1513 1515 1516 1518 1521 1524 1526 1529 1532 1534 1537 1539 1541 1543 1544 1545 1546 1547 1547 1547 1547 1546 1546 1544 1543 1542 1541 1540 1538 1537 1536 1535 1534 1534 1533 1533
1504 1515 1511 1510 1511 1511 1511 1511 1511 1512 1511 1511 1511 1512 1513 1515 1516 1518 1520 1523 1527 1530 1533 1536 1539 1541 1543 1545 1546 1547 1548 1548 1548 1548 1548 1547 1546 1545 1544 1542 1541 1540 1538 1537 1536 1535 1535 1535 1533
1506 1510 1509 1510 1510 1510 1510 1510 1510 1510 1510 1510 1510 1510 1511 1513 1514 1517 1520 1524 1527 1530 1533 1536 1539 1541 1543 1545 1546 1547 1548 1549 1549 1549 1549 1548 1548 1547 1546 1544 1543 1542 1541 1539 1537 1536 1536 1535 1534
1506 1509 1509 1510 1510 1510 1510 1510 1509 1509 1510 1509 1509 1509 1509 1510 1512 1514 1518 1522 1526 1529 1533 1535 1538 1541 1543 1545 1546 1548 1549 1549 1550 1550 1550 1549 1549 1549 1547 1546 1545 1544 1543 1541 1540 1538 1537 1536 1535
1506 1508 1509 1509 1510 1510 1509 1508 1508 1508 1509 1507 1506 1505 1506 1508 1511 1514 1518 1522 1525 1528 1532 1535 1537 1540 1543 1545 1547 1548 1549 1550 1551 1551 1551 1551 1551 1550 1549 1548 1547 1547 1545 1544 1542 1541 1539 1538 1537
1506 1507 1508 1509 1509 1509 1509 1508 1507 1507 1506 1505 1504 1503 1503 1505 1508 1512 1515 1519 1523 1527 1531 1534 1537 1540 1542 1545 1547 1549 1550 1551 1551 1552 1552 1552 1552 1551 1551 1550 1549 1548 1547 1545 1544 1542 1541 1539 1538
1506 1508 1509 1510 1509 1509 1508 1507 1507 1505 1505 1502 1500 1501 1501 1503 1506 1509 1514 1517 1522 1526 1530 1533 1536 1539 1542 1545 1547 1548 1550 1550 1551 1552 1552 1553 1552 1552 1552 1551 1550 1549 1549 1548 1547 1545 1542 1541 1539
1509 1510 1511 1511 1510 1508 1508 1507 1503 1503 1501 1500 1499 1499 1500 1501 1504 1508 1512 1516 1521 1525 1528 1532 1535 1538 1541 1544 1546 1548 1549 1550 1551 1552 1553 1553 1553 1553 1553 1552 1552 1551 1550 1550 1549 1547 1545 1543 1542
1514 1512 1512 1510 1513 1512 1509 1505 1502 1502 1500 1499 1497 1496 1497 1499 1502 1505 1510 1514 1518 1523 1527 1530 1534 1537 1540 1543 1545 1547 1549 1550 1551 1552 1553 1554 1554 1554 1554 1553 1553 1552 1552 1551 1550 1548 1547 1546 1544
1510 1510 1513 1513 1515 1513 1512 1508 1501 1501 1500 1499 1497 1494 1495 1498 1500 1503 1507 1512 1516 1521 1525 1529 1532 1535 1538 1541 1544 1546 1548 1550 1551 1552 1553 1554 1554 1554 1554 1554 1554 1553 1553 1552 1551 1550 1548 1547 1546
1509 1511 1513 1513 1516 1514 1509 1511 1501 1499 1499 1498 1496 1494 1494 1497 1499 1501 1505 1510 1514 1518 1522 1526 1529 1533 1537 1540 1542 1544 1546 1548 1550 1552 1553 1553 1554 1554 1554 1554 1554 1553 1553 1552 1551 1551 1550 1549 1547
1510 1513 1514 1513 1515 1514 1512 1505 1500 1498 1498 1498 1496 1494 1494 1495 1497 1500 1503 1507 1511 1516 1520 1524 1527 1531 1535 1539 1541 1543 1545 1547 1549 1551 1552 1553 1553 1553 1554 1554 1553 1553 1553 1552 1552 1550 1549 1548 1548
1511 1512 1513 1517 1516 1517 1517 1500 1496 1497 1497 1497 1495 1494 1493 1494 1496 1498 1502 1506 1510 1514 1518 1522 1525 1528 1532 1536 1539 1541 1544 1545 1547 1549 1550 1551 1552 1552 1553 1553 1553 1552 1552 1552 1551 1550 1549 1548 1548
1507 1514 1514 1517 1519 1518 1520 1513 1499 1495 1495 1496 1495 1494 1493 1493 1495 1498 1500 1504 1508 1512 1517 1521 1524 1528 1530 1534 1537 1539 1541 1543 1545 1546 1548 1549 1550 1551 1551 1551 1551 1551 1551 1551 1551 1550 1549 1548 1548
1510 1515 1518 1524 1532 1534 1520 1526 1491 1496 1494 1494 1494 1493 1492 1492 1494 1497 1500 1504 1507 1511 1515 1519 1522 1526 1530 1533 1535 1537 1539 1540 1542 1544 1546 1547 1548 1548 1549 1549 1549 1549 1549 1549 1548 1548 1548 1548 1548
1515 1517 1522 1530 1530 1534 1536 1520 1491 1491 1486 1491 1492 1491 1491 1491 1493 1496 1500 1504 1507 1510 1514 1518 1521 1524 1528 1530 1532 1535 1536 1538 1540 1542 1543 1545 1546 1546 1547 1547 1547 1547 1547 1547 1546 1546 1546 1546 1546
1515 1518 1528 1527 1535 1512 1534 1527 1485 1483 1485 1485 1488 1490 1490 1490 1491 1494 1498 1502 1505 1508 1513 1517 1521 1523 1525 1528 1530 1533 1535 1537 1539 1540 1541 1542 1543 1544 1544 1545 1545 1545 1545 1545 1545 1544 1544 1544 1543
1514 1521 1527 1523 1517 1506 1527 1513 1479 1485 1487 1487 1488 1489 1490 1489 1490 1493 1496 1500 1504 1507 1511 1515 1519 1521 1524 1527 1530 1532 1533 1535 1536 1538 1539 1540 1541 1542 1543 1543 1543 1543 1543 1542 1542 1541 1541 1541 1540
1514 1517 1518 1540 1548 1545 1503 1493 1483 1487 1487 1488 1489 1490 1490 1490 1490 1492 1495 1499 1503 1506 1509 1513 1516 1520 1523 1526 1528 1530 1531 1532 1534 1535 1536 1538 1539 1539 1540 1540 1540 1540 1539 1539 1538 1538 1537 1537 1537
1515 1517 1518 1535 1525 1522 1503 1507 1476 1487 1487 1489 1489 1490 1491 1491 1491 1491 1493 1497 1501 1506 1508 1512 1515 1517 1520 1523 1525 1527 1529 1530 1532 1533 1534 1535 1536 1536 1537 1537 1536 1536 1535 1535 1535 1534 1534 1534 1533
1521 1526 1526 1524 1524 1515 1517 1488 1484 1484 1483 1485 1488 1489 1490 1491 1491 1492 1493 1497 1499 1504 1507 1511 1513 1514 1518 1520 1523 1525 1527 1529 1530 1531 1532 1532 1532 1532 1532 1532 1532 1532 1531 1531 1530 1530 1529 1529 1528
1519 1517 1519 1512 1522 1529 1518 1491 1483 1484 1483 1485 1488 1489 1489 1490 1492 1494 1494 1498 1500 1502 1505 1509 1514 1514 1516 1518 1521 1523 1525 1527 1528 1528 1528 1529 1529 1528 1528 1528 1527 1527 1526 1526 1525 1524 1523 1522 1522
Wind_Speed
6 8 7 3 3 3 1 3 0 2 3 2 6 3 2 3 2 0 12 12 23 18 18 14 12 10 9 9 8 10 11 11 11 12 12 13 13 13 13 14 14 13 12 10 8 7 5 2 3
6 7 4 2 3 2 3 1 3 2 4 10 7 4 2 1 2 6 17 17 21 18 18 15 12 10 10 9 9 10 11 11 11 11 11 13 13 13 12 12 12 12 12 12 12 9 8 7 4
6 7 2 4 3 3 2 2 1 3 9 3 3 3 2 2 3 15 12 22 22 19 16 14 12 11 9 9 10 10 10 10 11 10 10 12 12 13 12 11 10 11 11 12 12 12 9 7 6
5 4 5 3 3 3 3 1 3 5 3 2 3 3 3 4 7 9 20 22 20 18 15 13 13 11 10 10 10 9 9 9 9 10 9 9 10 10 11 10 9 9 11 9 10 11 11 9 6
5 2 3 3 3 3 2 1 7 3 4 3 3 2 2 4 7 14 20 20 19 18 16 14 12 10 10 10 10 9 9 8 8 9 10 10 11 11 11 11 10 9 9 9 8 9 10 10 8
2 3 3 2 3 3 1 1 4 2 2 1 3 5 2 6 9 17 21 19 17 16 17 14 12 11 10 10 9 8 8 7 8 8 8 9 10 10 11 11 10 10 10 9 8 7 8 9 9
5 3 3 3 2 2 1 4 2 2 2 2 3 3 3 8 13 20 21 19 18 16 16 14 12 11 11 10 9 7 7 7 7 8 8 8 9 9 10 10 11 11 10 11 11 10 7 8 9
4 4 3 2 2 1 2 3 1 2 1 1 4 2 3 12 18 24 22 20 18 17 15 13 12 11 11 10 9 7 7 7 7 7 8 8 10 10 11 11 12 12 11 11 11 11 9 8 8
3 4 1 2 4 1 1 1 0 1 1 2 3 3 2 12 21 24 24 22 20 18 16 14 12 11 11 9 8 7 6 6 7 8 9 10 11 12 13 13 13 13 12 11 11 12 12 11 9
4 3 5 1 1 1 2 1 2 1 2 2 5 6 5 15 22 24 26 25 23 20 18 16 13 11 10 9 8 7 6 7 8 9 10 11 12 13 14 15 15 15 14 13 13 13 12 11 10
3 3 3 1 1 1 1 1 2 1 1 2 3 5 10 19 23 23 23 21 20 19 18 17 14 12 11 9 7 6 6 7 8 9 10 12 13 14 15 16 16 16 16 15 14 13 12 12 11
3 2 2 3 1 0 0 3 3 2 1 7 10 9 11 20 23 24 23 22 21 19 17 17 16 14 12 10 8 7 6 7 7 8 10 12 13 14 15 15 17 16 17 16 15 15 14 13 11
2 3 3 2 2 1 2 2 2 2 5 7 7 8 13 18 23 22 20 19 20 19 18 17 16 15 13 11 9 7 7 7 7 8 10 11 12 13 15 16 17 17 17 17 16 15 15 14 12
3 4 4 2 3 2 3 2 1 3 6 15 9 5 11 17 21 22 23 22 22 19 17 17 16 15 14 11 9 8 7 7 7 8 9 10 11 13 14 15 16 17 18 19 18 18 17 15 13
4 3 2 6 7 1 4 1 3 2 15 10 5 5 9 14 19 21 20 21 20 19 17 16 17 16 14 12 11 9 8 7 7 7 7 8 10 11 13 14 15 16 18 18 17 18 18 16 14
3 4 1 1 8 4 4 5 2 9 12 10 7 6 8 12 15 18 19 18 19 19 18 16 17 16 15 13 12 10 9 8 7 6 6 7 8 9 11 12 13 15 16 16 16 17 19 18 15
5 2 1 3 3 3 4 5 3 12 7 9 9 3 10 11 14 17 18 18 19 19 18 17 17 16 16 15 14 12 10 8 7 6 5 5 6 8 10 11 12 13 14 15 17 17 18 18 16
4 2 2 4 2 3 2 8 6 8 4 6 9 4 10 11 11 14 17 18 19 20 18 16 16 17 17 16 15 13 10 9 8 6 5 4 4 6 7 9 10 11 12 13 15 17 17 18 16
4 3 2 3 1 3 2 5 11 5 1 7 10 7 7 10 9 14 16 17 20 21 20 18 18 19 18 17 16 13 11 10 9 7 6 4 3 3 4 5 7 8 10 13 14 15 15 15 16
2 2 4 3 1 0 4 9 4 2 1 3 6 5 6 10 11 15 18 18 18 20 20 19 19 18 17 15 14 12 10 10 10 8 7 5 3 1 2 3 5 7 10 11 13 15 17 17 16
2 3 2 3 5 2 6 5 2 3 3 2 5 5 5 9 14 17 18 17 18 20 20 19 18 18 17 16 14 12 10 10 10 9 8 6 4 3 2 2 3 5 7 10 13 15 15 16 15
2 1 3 2 4 3 3 4 4 4 4 2 3 5 5 9 13 16 18 19 18 18 20 18 18 18 18 16 13 11 10 9 10 10 10 9 7 5 4 4 4 5 6 8 10 13 14 14 12
2 2 3 3 4 3 1 3 6 1 5 5 2 3 4 7 13 16 18 18 19 19 19 18 18 18 17 15 12 11 11 10 10 10 10 9 8 7 7 6 6 6 6 8 10 11 11 12 11
6 4 4 3 2 1 3 3 5 5 5 5 3 3 3 5 12 16 18 20 21 20 19 19 19 18 16 14 13 12 11 10 10 10 10 10 9 9 9 8 8 7 7 9 11 12 13 12 11
3 4 3 4 3 5 3 1 9 2 1 4 7 5 4 5 12 17 20 22 21 21 20 19 18 17 16 14 12 10 9 8 8 8 9 10 10 10 10 9 9 8 9 11 13 14 14 13 12
4 5 5 6 3 3 1 6 5 1 3 8 9 8 7 6 10 15 19 21 21 21 21 19 19 17 15 12 10 8 7 7 7 7 8 8 9 9 8 8 9 10 13 14 15 16 15 14 14
3 3 2 7 1 2 4 6 4 3 3 5 8 8 8 7 9 14 18 19 21 21 21 20 19 16 13 11 9 8 7 6 6 6 6 6 7 7 8 10 12 14 15 16 16 15 15 16 16
2 1 3 3 2 5 4 5 5 5 7 5 5 7 7 8 10 14 18 20 21 21 20 20 18 17 15 13 10 8 6 5 4 4 5 6 8 10 12 14 16 16 16 16 16 17 17 18 18
1 2 3 2 3 4 2 5 3 3 8 9 8 8 6 7 9 13 17 20 21 21 20 20 19 18 15 13 10 6 5 4 5 6 9 11 13 13 14 15 15 16 17 19 19 20 21 22 23
2 4 4 4 5 3 1 8 3 3 4 14 12 10 8 8 9 12 16 18 20 21 20 20 18 17 16 12 10 8 6 7 8 8 9 11 12 14 16 17 19 20 21 22 22 23 23 24 25
Wind_Direction
149 146 143 138 72 62 247 239 220 169 163 141 131 144 167 91 159 126 154 150 154 155 143 154 143 145 124 114 105 97 93 88 79 69 63 60 54 52 51 47 46 44 44 39 37 32 25 122 219
150 149 140 113 89 69 267 253 214 152 145 124 114 110 74 92 99 137 145 150 152 153 150 147 147 135 122 116 107 100 94 87 78 69 65 65 58 52 52 44 38 36 38 40 38 30 17 19 12
153 157 143 89 102 181 208 225 141 120 139 128 120 100 115 125 124 149 153 155 154 155 154 142 146 135 126 119 109 101 94 88 75 68 66 64 58 52 49 42 33 23 25 40 43 37 29 25 25
155 146 65 84 199 241 206 69 147 131 182 153 134 92 108 132 142 161 155 157 157 157 156 147 139 138 131 119 112 101 95 86 76 66 56 50 45 37 43 39 39 27 16 24 45 43 38 32 28
152 102 69 83 261 269 261 320 165 145 139 154 164 157 142 183 169 163 162 159 160 159 161 150 144 140 131 124 116 105 96 90 78 64 55 42 40 29 30 37 38 36 30 10 29 47 49 35 36
91 77 71 211 249 272 347 133 151 128 138 142 141 147 167 165 163 170 167 161 162 166 163 157 154 144 136 130 124 113 95 85 75 62 54 44 37 33 27 29 37 36 38 31 14 39 56 49 42
117 85 191 182 242 303 343 138 156 174 166 216 165 136 162 172 158 158 162 164 165 169 170 168 160 152 144 138 131 114 96 81 71 60 54 47 42 39 35 30 33 41 35 41 28 24 40 65 51
121 93 118 248 219 257 342 171 328 188 239 166 181 163 169 182 163 163 166 170 170 172 176 172 166 158 150 142 132 124 102 84 74 64 57 55 49 47 46 36 36 37 39 38 36 30 30 50 60
121 69 199 215 167 211 108 195 98 282 246 208 207 188 176 175 173 173 174 176 176 178 178 174 168 161 157 150 137 123 105 89 78 70 65 60 58 54 52 47 42 41 40 38 36 37 37 38 44
87 113 211 137 137 192 325 2 327 335 341 258 246 244 214 181 184 186 186 184 182 182 179 175 172 168 161 152 143 129 110 93 82 75 70 66 62 59 55 53 50 47 42 40 38 37 35 35 39
117 153 168 158 167 258 251 277 331 64 331 254 277 267 211 189 193 196 194 195 187 182 181 178 177 173 167 162 151 139 123 102 89 80 75 71 65 60 57 54 53 50 47 42 38 37 35 34 32
106 110 132 159 144 355 358 320 332 207 299 300 284 275 226 203 204 201 197 193 188 186 183 183 180 178 174 167 159 145 130 113 101 91 84 77 70 65 61 57 55 53 50 46 40 36 33 33 29
101 157 115 113 76 13 309 307 268 285 342 348 324 249 236 217 209 205 200 196 192 190 187 185 184 182 179 173 165 153 141 128 116 102 90 82 73 66 61 57 55 53 52 49 45 39 35 33 31
123 119 116 69 35 72 354 298 286 178 345 326 309 272 224 218 213 205 200 198 196 192 190 189 186 186 184 179 172 162 151 142 129 112 98 89 79 70 64 59 54 53 49 44 39 35 34 31 30
119 109 110 20 342 5 331 86 210 244 332 341 309 253 221 214 211 212 208 202 198 194 193 192 189 188 184 181 177 170 163 156 145 128 110 97 85 76 68 62 56 52 50 47 41 35 33 33 36
67 56 59 20 354 341 30 265 205 337 336 347 350 231 216 213 211 208 206 204 199 197 198 195 194 193 188 184 181 178 175 169 159 144 124 105 91 81 72 64 56 52 46 44 43 40 35 34 36
10 208 226 317 41 318 31 276 238 337 341 349 351 282 211 205 203 202 201 198 199 199 200 199 198 195 192 189 187 185 183 179 171 159 142 121 98 83 74 65 56 49 42 35 35 34 35 34 34
211 220 239 248 339 358 246 264 292 317 339 349 355 328 199 196 201 197 195 193 195 198 200 203 201 196 194 194 192 191 190 188 185 178 166 147 114 91 77 64 55 49 41 33 30 28 24 24 29
115 134 244 264 78 311 238 277 283 287 334 10 18 48 167 183 183 187 190 192 193 195 199 200 199 198 199 197 195 195 196 195 195 191 185 173 143 106 82 64 51 41 31 28 25 21 20 18 19
107 143 256 273 57 231 347 294 275 254 123 17 16 58 131 167 171 176 183 190 194 194 195 197 196 199 197 198 199 201 201 201 199 199 201 199 192 157 74 42 31 26 24 21 16 12 11 11 13
171 192 218 227 328 43 322 305 232 202 174 95 52 61 138 165 172 173 176 181 184 189 194 192 195 195 197 197 200 204 206 205 205 208 214 218 225 240 271 326 355 5 8 6 6 5 5 7 9
253 123 113 50 40 258 10 269 265 222 216 120 54 70 114 162 173 176 175 176 179 182 184 189 194 195 194 198 203 208 208 210 210 212 218 223 232 248 268 288 310 328 344 356 357 355 353 354 357
188 85 91 96 87 41 6 99 265 8 238 197 131 72 92 161 173 179 175 173 172 177 185 189 190 192 194 199 206 208 210 210 211 214 221 228 234 246 258 269 283 300 319 337 345 347 344 340 341
143 87 57 60 98 22 228 151 273 193 204 152 157 100 77 144 173 175 177 176 176 179 185 188 188 189 194 199 202 204 208 209 211 213 216 225 238 249 259 268 278 289 301 319 329 331 330 327 323
85 72 327 343 7 224 171 49 248 214 97 159 155 120 86 136 171 176 178 178 180 180 182 185 187 190 192 196 198 200 206 211 218 225 231 237 244 251 257 266 277 290 305 319 321 318 314 309 308
179 150 163 219 225 273 115 231 249 149 101 117 130 121 103 120 160 175 180 182 182 181 181 184 187 191 189 189 192 196 206 214 221 225 231 238 245 255 267 281 295 305 310 311 309 305 300 297 297
183 201 127 101 53 20 226 285 269 138 133 134 137 132 108 109 142 168 177 182 181 182 183 186 186 186 186 190 194 196 202 210 218 225 235 243 252 263 275 285 291 295 298 298 296 293 292 293 294
150 145 74 8 272 258 272 283 245 221 204 178 165 147 131 119 136 156 166 174 176 180 180 181 183 185 185 186 186 188 190 198 213 234 252 266 277 284 288 292 294 295 295 292 290 288 287 287 287
71 321 36 118 156 213 279 252 212 230 201 187 173 164 151 134 136 150 162 171 176 180 180 181 179 177 175 173 170 178 190 217 261 272 277 281 283 285 288 289 290 291 290 290 289 288 288 288 288
124 193 153 146 253 226 244 267 360 263 207 171 174 173 167 162 150 155 160 168 171 173 173 172 171 169 166 172 184 192 220 250 261 268 274 277 281 285 287 288 289 288 288 287 286 285 285 284 284